Location: Central Falls
(41.8900°N, 71.3929°W)
Time: 12:43:02
(UTC+00:00)

A-11 Canister half - Pass Details

Date: 03 December 2023
Orbit: 1526 x 1682 km, 47.3° (Epoch: 20 February)

Event Time Altitude Azimuth Distance (km) Brightness Sun altitude
Rises 22:39:11 0° 205° (SSW) 4,903 12.3 -15.3°
Reaches altitude 10° 22:42:36 10° 198° (SSW) 3,927 11.6 -15.9°
Maximum altitude 22:51:41 39° 134° (SE) 2,327 9.7 -17.5°
Enters shadow 22:56:50 24° 85° (E) 2,946 9.9 -18.4°
Drops below altitude 10° 23:00:44 10° 70° (ENE) 3,924 - -19.1°
Sets 23:04:07 0° 64° (ENE) 4,900 - -19.7°
